Location: Marse
(42.1502°N, 110.9866°W)
Time: 21:20:38
(UTC+00:00)

AO-92 - Visible Passes

Search period start: 26 June 2022 00:00
Search period end: 06 July 2022 00:00
Orbit: 472 x 481 km, 97.4° (Epoch: 26 June)

Date Brightness Start Highest point End Pass type
(mag) Time Alt. Az. Time Alt. Az. Time Alt. Az.
26 Jun ? 04:43:15 19° E 04:44:28 23° ENE 04:47:21 10° NNE visible
26 Jun ? 06:17:27 20° W 06:17:43 20° W 06:20:25 10° NW visible
27 Jun ? 04:16:42 10° E 04:18:03 12° ENE 04:19:25 10° NE visible
27 Jun ? 05:50:32 42° WSW 05:50:56 44° W 05:54:21 10° NNW visible
28 Jun ? 05:23:37 56° SSE 05:24:15 77° ENE 05:27:49 10° N visible
29 Jun ? 04:56:40 28° ESE 04:57:39 33° ENE 05:00:54 10° N visible
29 Jun ? 06:30:52 14° W 06:31:05 14° W 06:33:03 10° WNW visible
30 Jun ? 04:29:43 14° E 04:31:09 17° ENE 04:33:28 10° NNE visible
30 Jun ? 06:03:55 29° WSW 06:04:12 30° W 06:07:23 10° NW visible
01 Jul ? 05:36:57 59° SSW 05:37:25 69° WSW 05:40:59 10° NNW visible
02 Jul ? 05:09:58 41° ESE 05:10:44 49° ENE 05:14:12 10° N visible
03 Jul ? 04:42:58 20° E 04:44:09 23° ENE 04:47:00 10° NNE visible
03 Jul ? 06:17:10 21° W 06:17:21 21° W 06:20:07 10° NW visible
04 Jul ? 04:16:18 10° E 04:17:37 12° ENE 04:18:56 10° NE visible
04 Jul ? 05:50:10 44° WSW 05:50:29 45° W 05:53:56 10° NNW visible
05 Jul ? 05:23:08 59° SE 05:23:42 76° ENE 05:27:16 10° N visible
